Location: Sungai Buloh
(3.1000°N, 113.0000°E)
Time: 17:20:53
(UTC+00:00)

CZ-3 R/B - Pass Details

Date: 12 January 2026
Orbit: 554 x 10001 km, 28.2° (Epoch: 11 February)

Event Time Altitude Azimuth Distance (km) Brightness Sun altitude
Exits shadow 20:59:28 21° 265° (W) 6,264 5.1 -23.7°
Maximum altitude 21:09:57 31° 225° (SW) 3,620 4.2 -21.2°
Drops below altitude 10° 21:17:53 10° 164° (SSE) 3,363 4.8 -19.4°
Sets 21:20:15 0° 151° (SSE) 3,854 5.4 -18.9°
